Location: Pel�-Koumbol�
(14.9505°N, 3.0798°W)
Time: 05:34:35
(UTC+00:00)

Cosmos 1400 Rocket - Pass Details

Date: 17 February 2020
Orbit: 521 x 568 km, 81.2° (Epoch: 07 April)

Event Time Altitude Azimuth Distance (km) Brightness Sun altitude
Rises 05:44:17 0° 177° (S) 2,656 6.5 -13.1°
Reaches altitude 10° 05:46:26 10° 173° (S) 1,775 5.6 -12.6°
Maximum altitude 05:50:16 55° 95° (E) 645 3.6 -11.7°
Drops below altitude 10° 05:54:09 10° 17° (NNE) 1,804 5.5 -10.8°
Sets 05:56:21 0° 12° (NNE) 2,705 6.4 -10.2°
